Change the Weather History Date:

Saturday, March 1, 2014

  Actual Average (KSAV) Record (KSAV)
Temperature  
Mean Temperature 56 °F 56 °F  
Max Temperature 67 °F 68 °F 86 °F (1918)
Min Temperature 46 °F 45 °F 23 °F (2002)
Degree Days  
Heating Degree Days 8 10  
Month to date heating degree days 10  
Since 1 July heating degree days 1527  
Cooling Degree Days 0 1  
Month to date cooling degree days 1  
Year to date cooling degree days 11  
Growing Degree Days 6 (Base 50)    
Moisture  
Dew Point 44 °F    
Average Humidity 72    
Maximum Humidity 89    
Minimum Humidity 37    
Precipitation  
Precipitation 0.00 in 0.11 in 3.28 in (1872)
Month to date precipitation 0.11  
Year to date precipitation 6.59  
Sea Level Pressure  
Sea Level Pressure 30.24 in    
Wind  
Wind Speed 2 mph (ENE)    
Max Wind Speed 12 mph    
Max Gust Speed 17 mph    
Visibility 10 miles    
Events      
T = Trace of Precipitation, MM = Missing Value Source: NWS Daily Summary

Daily Weather History Graph

Daily Weather History Graph

Search for Another Location

Airport or City:

Trip Planner

Search our weather history database for the weather conditions in past years. The results will help you decide how hot, cold, wet, or windy it might be!

Date:

Astronomy

Mar. 01, 2014 Rise Set
Actual Time 6:54 AM EST 6:23 PM EST
Civil Twilight 6:29 AM EST 6:48 PM EST
Nautical Twilight 6:00 AM EST 7:17 PM EST
Astronomical Twilight 5:32 AM EST 7:45 PM EST
Moon 6:50 AM EST (3/1) 7:04 PM EST (3/1)
Length of Visible Light 12h 19m
Length of Day
11h 29m
New Moon, 0% of the Moon is Illuminated
Mar 1
New Moon
Mar 8
First Quarter
Mar 16
Full
Mar 23
Last Quarter
Mar 30
New

Hourly Weather History & Observations

Time (EST) Temp. Dew Point Humidity Pressure Visibility Wind Dir Wind Speed Gust Speed Precip Events Conditions
12:15 AM 47.3 °F 42.3 °F 83% 30.22 in 10.0 mi Calm Calm - N/A   Clear
12:35 AM 47.8 °F 42.1 °F 80% 30.23 in 10.0 mi East 3.5 mph - N/A   Scattered Clouds
12:55 AM 47.3 °F 42.3 °F 83% 30.22 in 10.0 mi Calm Calm - N/A   Scattered Clouds
1:15 AM 46.8 °F 42.3 °F 84% 30.21 in 10.0 mi Calm Calm - N/A   Clear
1:35 AM 46.4 °F 42.4 °F 86% 30.21 in 10.0 mi Calm Calm - N/A   Mostly Cloudy
1:55 AM 46.9 °F 42.8 °F 86% 30.21 in 10.0 mi East 3.5 mph - N/A   Overcast
2:15 AM 46.8 °F 42.4 °F 85% 30.20 in 10.0 mi East 4.6 mph - N/A   Overcast
2:35 AM 47.5 °F 43.0 °F 84% 30.20 in 10.0 mi East 6.9 mph - N/A   Overcast
2:55 AM 47.7 °F 43.3 °F 85% 30.19 in 10.0 mi East 4.6 mph - N/A   Overcast
3:15 AM 47.7 °F 43.7 °F 86% 30.18 in 10.0 mi East 6.9 mph - N/A   Mostly Cloudy
3:35 AM 47.7 °F 43.7 °F 86% 30.17 in 10.0 mi East 8.1 mph - N/A   Mostly Cloudy
3:55 AM 47.5 °F 43.0 °F 84% 30.17 in 10.0 mi East 8.1 mph - N/A   Overcast
4:15 AM 47.5 °F 42.8 °F 84% 30.14 in 10.0 mi East 11.5 mph 17.3 mph N/A   Overcast
4:35 AM 47.3 °F 42.4 °F 83% 30.18 in 10.0 mi Calm Calm - N/A   Overcast
4:55 AM 47.3 °F 42.4 °F 83% 30.19 in 10.0 mi East 5.8 mph - N/A   Mostly Cloudy
5:15 AM 47.3 °F 42.8 °F 84% 30.21 in 10.0 mi NNE 3.5 mph - N/A   Mostly Cloudy
5:35 AM 47.3 °F 42.8 °F 84% 30.23 in 10.0 mi NNW 3.5 mph - N/A   Overcast
5:55 AM 47.3 °F 42.6 °F 84% 30.24 in 10.0 mi North 4.6 mph - N/A   Overcast
6:15 AM 47.3 °F 42.6 °F 84% 30.24 in 10.0 mi NNE 4.6 mph - N/A   Overcast
6:35 AM 47.3 °F 42.3 °F 83% 30.25 in 10.0 mi Calm Calm - N/A   Overcast
6:55 AM 47.5 °F 42.4 °F 83% 30.26 in 10.0 mi Calm Calm - N/A   Overcast
7:15 AM 47.5 °F 42.3 °F 82% 30.27 in 10.0 mi Calm Calm - N/A   Overcast
7:35 AM 47.7 °F 42.4 °F 82% 30.28 in 10.0 mi North 3.5 mph - N/A   Overcast
7:55 AM 47.7 °F 42.3 °F 82% 30.28 in 10.0 mi Calm Calm - N/A   Scattered Clouds
8:15 AM 48.0 °F 42.8 °F 82% 30.29 in 10.0 mi NE 4.6 mph - N/A   Scattered Clouds
8:35 AM 48.4 °F 42.6 °F 80% 30.29 in 10.0 mi NE 5.8 mph - N/A   Scattered Clouds
8:55 AM 49.1 °F 42.6 °F 78% 30.30 in 10.0 mi NE 3.5 mph - N/A   Scattered Clouds
9:15 AM 49.5 °F 42.3 °F 76% 30.30 in 10.0 mi NE 5.8 mph - N/A   Scattered Clouds
9:40 AM 50.2 °F 42.6 °F 75% 30.30 in 10.0 mi NE 5.8 mph - N/A   Scattered Clouds
9:55 AM 51.6 °F 43.0 °F 72% 30.30 in 10.0 mi East 5.8 mph - N/A   Mostly Cloudy
10:15 AM 52.3 °F 42.6 °F 69% 30.31 in 10.0 mi Calm Calm - N/A   Overcast
10:35 AM 52.9 °F 42.8 °F 69% 30.32 in 10.0 mi Calm Calm - N/A   Mostly Cloudy
10:55 AM 53.2 °F 43.2 °F 69% 30.32 in 10.0 mi Calm Calm - N/A   Scattered Clouds
11:15 AM 54.0 °F 42.8 °F 66% 30.32 in 10.0 mi Calm Calm - N/A   Mostly Cloudy
11:35 AM 54.7 °F 43.0 °F 65% 30.30 in 10.0 mi Calm Calm - N/A   Mostly Cloudy
11:55 AM 56.1 °F 43.5 °F 63% 30.30 in 10.0 mi Calm Calm - N/A   Mostly Cloudy
12:15 PM 58.5 °F 44.6 °F 60% 30.29 in 10.0 mi Calm Calm - N/A   Mostly Cloudy
12:35 PM 59.5 °F 44.8 °F 58% 30.28 in 10.0 mi Calm Calm - N/A   Overcast
12:55 PM 60.8 °F 45.7 °F 57% 30.27 in 10.0 mi Calm Calm - N/A   Overcast
1:15 PM 62.8 °F 45.3 °F 53% 30.26 in 10.0 mi Calm Calm - N/A   Overcast
1:35 PM 63.3 °F 45.0 °F 51% 30.25 in 10.0 mi Calm Calm - N/A   Scattered Clouds
1:55 PM 63.9 °F 44.1 °F 49% 30.24 in 10.0 mi Calm Calm - N/A   Clear
2:15 PM 65.5 °F 44.2 °F 46% 30.23 in 10.0 mi Calm Calm - N/A   Clear
2:35 PM 65.5 °F 44.2 °F 46% 30.23 in 10.0 mi Calm Calm - N/A   Clear
2:55 PM 65.5 °F 41.9 °F 42% 30.22 in 10.0 mi Calm Calm - N/A   Clear
3:15 PM 66.6 °F 41.9 °F 41% 30.21 in 10.0 mi Calm Calm - N/A   Clear
3:35 PM 66.9 °F 41.9 °F 40% 30.21 in 10.0 mi Calm Calm - N/A   Clear
3:55 PM 66.4 °F 41.0 °F 40% 30.20 in 10.0 mi Calm Calm - N/A   Clear
4:15 PM 66.9 °F 41.4 °F 39% 30.20 in 10.0 mi SSE 3.5 mph - N/A   Clear
4:35 PM 66.7 °F 39.4 °F 37% 30.20 in 10.0 mi Calm Calm - N/A   Clear
4:55 PM 67.3 °F 40.6 °F 38% 30.20 in 10.0 mi Calm Calm - N/A   Clear
5:15 PM 66.9 °F 41.7 °F 40% 30.20 in 10.0 mi Calm Calm - N/A   Clear
5:35 PM 66.7 °F 41.5 °F 40% 30.20 in 10.0 mi Calm Calm - N/A   Clear
5:55 PM 64.6 °F 44.1 °F 47% 30.20 in 10.0 mi Calm Calm - N/A   Clear
6:15 PM 62.2 °F 48.9 °F 62% 30.20 in 10.0 mi Calm Calm - N/A   Clear
6:35 PM 58.8 °F 50.0 °F 73% 30.21 in 10.0 mi Calm Calm - N/A   Clear
6:55 PM 56.8 °F 48.9 °F 75% 30.21 in 10.0 mi Calm Calm - N/A   Clear
7:15 PM 55.0 °F 48.4 °F 78% 30.22 in 10.0 mi Calm Calm - N/A   Clear
7:35 PM 53.6 °F 46.0 °F 76% 30.22 in 10.0 mi Calm Calm - N/A   Clear
7:55 PM 53.6 °F 47.1 °F 79% 30.23 in 10.0 mi Calm Calm - N/A   Clear
8:15 PM 51.8 °F 45.1 °F 78% 30.24 in 10.0 mi Calm Calm - N/A   Clear
8:35 PM 51.1 °F 45.5 °F 81% 30.24 in 10.0 mi Calm Calm - N/A   Clear
8:55 PM 51.1 °F 45.0 °F 80% 30.25 in 10.0 mi Calm Calm - N/A   Clear
9:15 PM 50.2 °F 45.1 °F 83% 30.25 in 10.0 mi Calm Calm - N/A   Clear
9:35 PM 49.3 °F 45.0 °F 85% 30.26 in 10.0 mi Calm Calm - N/A   Clear
9:55 PM 48.6 °F 45.0 °F 87% 30.26 in 10.0 mi Calm Calm - N/A   Clear
10:15 PM 48.4 °F 45.0 °F 88% 30.26 in 10.0 mi Calm Calm - N/A   Clear
10:40 PM 48.9 °F 45.3 °F 87% 30.26 in 10.0 mi Calm Calm - N/A   Clear
10:55 PM 49.1 °F 45.0 °F 86% 30.27 in 10.0 mi Calm Calm - N/A   Clear
11:15 PM 48.9 °F 45.7 °F 89% 30.27 in 10.0 mi Calm Calm - N/A   Clear
11:35 PM 48.4 °F 45.1 °F 89% 30.27 in 10.0 mi Calm Calm - N/A   Clear
11:55 PM 48.2 °F 44.8 °F 88% 30.28 in 10.0 mi Calm Calm - N/A   Clear